This demonstration page uses our WeatherBlox Daily Observations layout. Learn more.

Left ArrowRight Arrow

41.12389, -100.76542

Hourly Observations for September 26, 2017

Temp ( °F °C ) Dew Point ( °F °C ) Humidity (%) Winds ( mph kmh ) Pressure ( in mb ) Visibility ( mi km ) Precip ( " mm )
12:01 am 00:01 Cloudy 49 9.4 47 8.3 93 93 N 7 11 30.12 1020 10 16 0.00 0.00
12:44 am 00:44 Cloudy 49 9.4 47 8.3 93 93 NNW 6 9 30.12 1020 10 16 0.00 0.00
12:53 am 00:53 Cloudy 49 9.4 47 8.3 93 93 N 3 6 30.13 1020 10 16 0.00 0.00
1:00 am 01:00 Cloudy 49 9.4 47 8.3 93 93 N 3 6 30.12 1020 10 16 0.00 0.00
1:17 am 01:17 Cloudy 49 9.4 47 8.3 93 93 NW 5 7 30.18 1022 10 16 0.00 0.00
1:53 am 01:53 Cloudy 49 9.4 47 8.3 93 93 NW 5 7 30.14 1021 10 16 0.00 0.00
2:53 am 02:53 Cloudy 48 8.9 46 7.8 93 93 NW 5 7 30.14 1021 10 16 0.00 0.00
3:10 am 03:10 Cloudy 48 8.9 46 7.8 93 93 NW 3 6 30.15 1021 10 16 0.00 0.00
3:43 am 03:43 Partly Cloudy 45 7.2 43 6.1 93 93 NW 7 11 30.18 1022 10 16 0.00 0.00
3:53 am 03:53 Partly Cloudy 45 7.2 43 6.1 93 93 WNW 6 9 30.14 1021 10 16 0.00 0.00
4:02 am 04:02 Mostly Cloudy 45 7.2 44 6.7 97 97 WNW 7 11 30.18 1022 10 16 0.00 0.00
4:53 am 04:53 Cloudy 46 7.8 44 6.7 93 93 NW 6 9 30.13 1020 10 16 0.00 0.00
5:53 am 05:53 Cloudy 48 8.9 44 6.7 86 86 NNW 7 11 30.14 1021 10 16 0.00 0.00
6:22 am 06:22 Cloudy 48 8.9 45 7.2 89 89 NNW 6 9 30.18 1022 10 16 0.00 0.00
6:53 am 06:53 Cloudy 48 8.9 44 6.7 86 86 NW 9 15 30.16 1021 10 16 0.00 0.00
7:53 am 07:53 Cloudy 47 8.3 44 6.7 90 90 WNW 9 15 30.18 1022 10 16 0.00 0.00
8:53 am 08:53 Partly Cloudy 49 9.4 44 6.7 83 83 WNW 7 11 30.19 1022 10 16 0.00 0.00
9:53 am 09:53 Sunny 51 10.6 44 6.7 77 77 WNW 6 9 30.20 1023 10 16 0.00 0.00
10:53 am 10:53 Sunny 55 12.8 46 7.8 72 72 WNW 12 19 30.19 1022 10 16 0.00 0.00
11:53 am 11:53 Sunny 60 15.6 44 6.7 56 56 N 5 7 30.17 1022 10 16 0.00 0.00
12:53 pm 12:53 Sunny 63 17.2 45 7.2 52 52 WNW 8 13 30.15 1021 10 16 0.00 0.00
1:53 pm 13:53 Sunny 65 18.3 46 7.8 51 51 NW 5 7 30.14 1021 10 16 0.00 0.00
2:53 pm 14:53 Sunny 68 20 45 7.2 44 44 NNW 3 6 30.11 1020 10 16 0.00 0.00
3:53 pm 15:53 Sunny 67 19.4 45 7.2 45 45 SSW 6 9 30.11 1020 10 16 0.00 0.00
4:53 pm 16:53 Sunny 68 20 44 6.7 42 42 SW 3 6 30.11 1020 10 16 0.00 0.00
5:53 pm 17:53 Sunny 68 20 44 6.7 42 42 Calm 30.10 1019 10 16 0.00 0.00
6:53 pm 18:53 Sunny 62 16.7 52 11.1 70 70 SE 3 6 30.13 1020 10 16 0.00 0.00
7:53 pm 19:53 Clear 57 13.9 51 10.6 81 81 Calm 30.15 1021 10 16 0.00 0.00
8:53 pm 20:53 Clear 53 11.7 48 8.9 83 83 ESE 6 9 30.17 1022 10 16 0.00 0.00
9:53 pm 21:53 Clear 50 10 47 8.3 89 89 ESE 6 9 30.19 1022 10 16 0.00 0.00
10:53 pm 22:53 Clear 48 8.9 46 7.8 93 93 E 6 9 30.20 1023 10 16 0.00 0.00
11:53 pm 23:53 Clear 46 7.8 45 7.2 96 96 E 3 6 30.22 1024 10 16 0.00 0.00

Powered by AerisWeather